Tiempo cada hora Goetzenbruck

Hoy, 4 Agosto, Miércoles

Tiempo Temperatura Precipitaciones Viento Presión Humedad
00:00 +13°C° 0 mm 2 mps 734 mmHg 95%
01:00 +13°C° 0 mm 2 mps 734 mmHg 95%
02:00 +13°C° 0 mm 2 mps 733 mmHg 96%
03:00 +13°C° 0 mm 1 mps 733 mmHg 96%
04:00 +13°C° 0 mm 1 mps 733 mmHg 96%
05:00 +13°C° 0 mm 1 mps 733 mmHg 95%
06:00 +12°C° 0 mm 0 mps 733 mmHg 95%
07:00 +13°C° 0.1 mm 0 mps 733 mmHg 93%
08:00 +14°C° 0.1 mm 0 mps 734 mmHg 91%
09:00 +14°C° 0.1 mm 0 mps 734 mmHg 89%
10:00 +16°C° 0.3 mm 1 mps 733 mmHg 85%
11:00 +18°C° 0.3 mm 1 mps 733 mmHg 81%
12:00 +19°C° 0.3 mm 1 mps 733 mmHg 77%
13:00 +19°C° 0.3 mm 1 mps 733 mmHg 77%
14:00 +19°C° 0.3 mm 1 mps 733 mmHg 78%
15:00 +19°C° 0.3 mm 1 mps 732 mmHg 78%
16:00 +19°C° 0.1 mm 1 mps 732 mmHg 82%
17:00 +18°C° 0.1 mm 1 mps 732 mmHg 86%
18:00 +16°C° 0.1 mm 1 mps 732 mmHg 90%
19:00 +15°C° 0 mm 1 mps 732 mmHg 91%
20:00 +15°C° 0 mm 1 mps 732 mmHg 92%
21:00 +14°C° 0 mm 1 mps 732 mmHg 93%
22:00 +14°C° 0 mm 1 mps 732 mmHg 94%
23:00 +14°C° 0 mm 1 mps 732 mmHg 94%

Mañana, 5 Agosto, Jueves

Tiempo Temperatura Precipitaciones Viento Presión Humedad
00:00 +14°C° 0 mm 1 mps 732 mmHg 94%
01:00 +14°C° 0 mm 1 mps 732 mmHg 94%
02:00 +13°C° 0 mm 1 mps 731 mmHg 95%
03:00 +13°C° 0 mm 1 mps 731 mmHg 95%
04:00 +14°C° 0 mm 1 mps 731 mmHg 94%
05:00 +14°C° 0 mm 1 mps 731 mmHg 93%
06:00 +13°C° 0 mm 0 mps 731 mmHg 92%
07:00 +15°C° 0.2 mm 1 mps 731 mmHg 92%
08:00 +15°C° 0.2 mm 1 mps 731 mmHg 91%
09:00 +16°C° 0.2 mm 1 mps 731 mmHg 91%
10:00 +16°C° 0 mm 1 mps 731 mmHg 91%
11:00 +16°C° 0 mm 2 mps 731 mmHg 90%
12:00 +16°C° 0 mm 2 mps 731 mmHg 90%
13:00 +17°C° 0 mm 2 mps 731 mmHg 89%
14:00 +17°C° 0 mm 2 mps 730 mmHg 89%
15:00 +17°C° 0 mm 3 mps 730 mmHg 88%
16:00 +17°C° 0.2 mm 3 mps 730 mmHg 88%
17:00 +17°C° 0.2 mm 2 mps 730 mmHg 89%
18:00 +17°C° 0.2 mm 2 mps 730 mmHg 89%
19:00 +16°C° 0.1 mm 2 mps 730 mmHg 91%
20:00 +15°C° 0.1 mm 2 mps 730 mmHg 93%
21:00 +14°C° 0.1 mm 2 mps 730 mmHg 95%
22:00 +14°C° 0 mm 2 mps 730 mmHg 95%
23:00 +14°C° 0 mm 2 mps 730 mmHg 95%

Pasado mañana, 6 Agosto, Viernes

Tiempo Temperatura Precipitaciones Viento Presión Humedad
00:00 +14°C° 0 mm 2 mps 729 mmHg 94%
01:00 +14°C° 0.1 mm 2 mps 729 mmHg 94%
02:00 +14°C° 0.1 mm 2 mps 729 mmHg 94%
03:00 +14°C° 0.1 mm 2 mps 729 mmHg 94%
04:00 +15°C° 0.3 mm 2 mps 729 mmHg 94%
05:00 +14°C° 0.3 mm 3 mps 729 mmHg 94%
06:00 +14°C° 0.3 mm 3 mps 729 mmHg 94%
07:00 +15°C° 0.1 mm 4 mps 729 mmHg 91%
08:00 +17°C° 0.1 mm 4 mps 730 mmHg 89%
09:00 +16°C° 0.1 mm 5 mps 730 mmHg 86%
10:00 +19°C° 0.1 mm 5 mps 730 mmHg 79%
11:00 +20°C° 0.1 mm 5 mps 730 mmHg 72%
12:00 +21°C° 0.1 mm 6 mps 730 mmHg 66%
13:00 +21°C° 0.1 mm 6 mps 730 mmHg 67%
14:00 +21°C° 0.1 mm 5 mps 730 mmHg 68%
15:00 +20°C° 0.1 mm 5 mps 730 mmHg 69%
16:00 +19°C° 0 mm 4 mps 730 mmHg 73%
17:00 +19°C° 0 mm 3 mps 730 mmHg 77%
18:00 +18°C° 0 mm 2 mps 730 mmHg 81%
19:00 +17°C° 0 mm 2 mps 730 mmHg 84%
20:00 +16°C° 0 mm 1 mps 730 mmHg 86%
21:00 +15°C° 0 mm 1 mps 730 mmHg 89%
22:00 +15°C° 0 mm 1 mps 730 mmHg 90%
23:00 +15°C° 0 mm 1 mps 730 mmHg 90%

7 Agosto, Sábado

Tiempo Temperatura Precipitaciones Viento Presión Humedad
00:00 +15°C° 0 mm 1 mps 729 mmHg 91%
01:00 +15°C° 0 mm 1 mps 729 mmHg 92%
02:00 +14°C° 0 mm 1 mps 729 mmHg 93%
03:00 +14°C° 0 mm 1 mps 728 mmHg 93%
04:00 +15°C° 0 mm 1 mps 729 mmHg 91%
05:00 +16°C° 0 mm 1 mps 729 mmHg 88%
06:00 +16°C° 0 mm 1 mps 729 mmHg 86%
07:00 +18°C° 0.2 mm 1 mps 729 mmHg 87%
08:00 +17°C° 0.2 mm 2 mps 729 mmHg 88%
09:00 +17°C° 0.2 mm 3 mps 729 mmHg 89%
10:00 +17°C° 0.4 mm 3 mps 729 mmHg 91%
11:00 +17°C° 0.4 mm 3 mps 729 mmHg 92%
12:00 +17°C° 0.4 mm 3 mps 729 mmHg 94%
13:00 +17°C° 1.1 mm 3 mps 729 mmHg 94%
14:00 +17°C° 1.1 mm 3 mps 729 mmHg 93%
15:00 +17°C° 1.1 mm 3 mps 729 mmHg 93%
16:00 +17°C° 0.6 mm 3 mps 730 mmHg 92%
17:00 +17°C° 0.6 mm 3 mps 730 mmHg 92%
18:00 +17°C° 0.6 mm 3 mps 730 mmHg 92%
19:00 +16°C° 0.2 mm 3 mps 731 mmHg 93%
20:00 +14°C° 0.2 mm 3 mps 731 mmHg 94%
21:00 +13°C° 0.2 mm 3 mps 732 mmHg 95%
22:00 +13°C° 0 mm 3 mps 732 mmHg 95%
23:00 +13°C° 0 mm 3 mps 732 mmHg 95%

8 Agosto, Domingo

Tiempo Temperatura Precipitaciones Viento Presión Humedad
00:00 +12°C° 0 mm 3 mps 732 mmHg 95%
01:00 +13°C° 0 mm 2 mps 732 mmHg 96%
02:00 +13°C° 0 mm 2 mps 732 mmHg 96%
03:00 +12°C° 0 mm 2 mps 732 mmHg 96%
04:00 +13°C° 0 mm 2 mps 733 mmHg 95%
05:00 +14°C° 0 mm 2 mps 733 mmHg 94%
06:00 +14°C° 0 mm 2 mps 733 mmHg 93%
07:00 +16°C° 0.1 mm 3 mps 734 mmHg 86%
08:00 +17°C° 0.1 mm 3 mps 734 mmHg 79%
09:00 +19°C° 0.1 mm 4 mps 734 mmHg 72%
10:00 +20°C° 0.2 mm 4 mps 735 mmHg 69%
11:00 +20°C° 0.2 mm 5 mps 735 mmHg 66%
12:00 +21°C° 0.2 mm 5 mps 735 mmHg 62%
13:00 +21°C° 0.1 mm 5 mps 735 mmHg 61%
14:00 +21°C° 0.1 mm 5 mps 736 mmHg 59%
15:00 +21°C° 0.1 mm 5 mps 736 mmHg 57%
16:00 +20°C° 0 mm 4 mps 736 mmHg 64%
17:00 +19°C° 0 mm 3 mps 736 mmHg 71%
18:00 +18°C° 0 mm 2 mps 736 mmHg 77%
19:00 +17°C° 0 mm 2 mps 737 mmHg 80%
20:00 +15°C° 0 mm 2 mps 737 mmHg 82%
21:00 +14°C° 0 mm 1 mps 737 mmHg 85%
22:00 +14°C° 0 mm 1 mps 737 mmHg 86%
23:00 +13°C° 0 mm 1 mps 737 mmHg 87%

9 Agosto, Lunes

Tiempo Temperatura Precipitaciones Viento Presión Humedad
00:00 +13°C° 0 mm 1 mps 737 mmHg 88%
01:00 +13°C° 0 mm 1 mps 737 mmHg 86%
02:00 +13°C° 0 mm 1 mps 737 mmHg 84%
03:00 +14°C° 0 mm 1 mps 737 mmHg 82%
04:00 +14°C° 0 mm 1 mps 737 mmHg 81%
05:00 +15°C° 0 mm 1 mps 738 mmHg 81%
06:00 +15°C° 0 mm 1 mps 738 mmHg 81%
07:00 +17°C° 0 mm 2 mps 738 mmHg 75%
08:00 +19°C° 0 mm 3 mps 738 mmHg 69%
09:00 +20°C° 0 mm 3 mps 738 mmHg 63%
10:00 +21°C° 0.1 mm 4 mps 738 mmHg 62%
11:00 +21°C° 0.1 mm 4 mps 738 mmHg 61%
12:00 +22°C° 0.1 mm 5 mps 738 mmHg 60%
13:00 +22°C° 0.1 mm 5 mps 738 mmHg 61%
14:00 +22°C° 0.1 mm 5 mps 738 mmHg 61%
15:00 +22°C° 0.1 mm 5 mps 738 mmHg 62%
16:00 +20°C° 0.1 mm 5 mps 738 mmHg 67%
17:00 +19°C° 0.1 mm 4 mps 738 mmHg 72%
18:00 +18°C° 0.1 mm 4 mps 738 mmHg 77%
19:00 +17°C° 0 mm 3 mps 739 mmHg 81%
20:00 +16°C° 0 mm 2 mps 739 mmHg 85%
21:00 +14°C° 0 mm 2 mps 739 mmHg 90%
22:00 +14°C° 0 mm 2 mps 739 mmHg 90%
23:00 +14°C° 0 mm 2 mps 739 mmHg 90%
Mostrar más

Necesitamos Su Consentimiento

Meteoprog y nuestros Proveedores de Servicios pueden almacenar y acceder a sus datos personales como cookies, identificadores de dispositivo u otras tecnologías similares de su dispositivo y procesar dichos datos para personalizar contenido y anuncios, además de ofrecer funciones de redes sociales y analizar el tráfico.

  • Almacenar y/o acceder a información en su dispositivo

    Se puede almacenar o acceder a cookies, identificadores de dispositivo u otra información de su dispositivo para los fines anteriormente indicados.

  • Anuncios y contenido personalizados, medición de anuncios y contenido, percepciones del público, y desarrollo de productos

    Los anuncios y el contenido pueden personalizarse en base a su perfil. Se pueden añadir más datos para personalizar mejor los anuncios y contenidos. Se puede medir el rendimiento de los anuncios y contenidos. Se puede obtener la percepción sobre el público que ha visto los anuncios y contenidos. Dichos datos pueden usarse para desarrollar o mejorar la experiencia del usuario, sistemas y software.

Al hacer clic en ‘Estoy De Acuerdo’ usted permitirá el uso de las cookies, identificadores de dispositivo, balizas web u otras tecnologías similares indicadas. Su configuración puede cambiarse desde el navegador de su dispositivo.

Para ciertos fines, los intereses legítimos pueden ser considerados por encima del consentimiento. Puede leer más sobre ello en nuestra Política de Privacidad y Cookies.